Estación de Morza

Ultimos registro cada 15 minutos 44
Estación Fecha / Hora Temperatura Humedad Lluvia Velocidad Dirección Radiación Presion
44 Morza 10-05-2026 10:45 10,3 97 0 0,4 8 399 1014,4
43 Morza 10-05-2026 10:30 9,2 97 0 0,9 319 374 1014,5
42 Morza 10-05-2026 10:15 8,1 97 0 0,4 49 336 1014,6
41 Morza 10-05-2026 10:00 7,4 97 0 0,4 51 318 1014,6
40 Morza 10-05-2026 09:45 6,5 97 0 0,4 38 236 1014,6
39 Morza 10-05-2026 09:30 5,7 97 0 0 73 225 1014,7
38 Morza 10-05-2026 09:15 4,8 97 0 0 129 142 1014,5
37 Morza 10-05-2026 09:00 3,5 97 0 0 357 134 1014,2
36 Morza 10-05-2026 08:45 1,9 97 0 0 357 91 1013,6
35 Morza 10-05-2026 08:30 1,1 96 0 0 357 70 1013,5
34 Morza 10-05-2026 08:15 0,6 96 0 0 357 58 1013,4
33 Morza 10-05-2026 08:00 0,4 96 0 0 357 37 1013,4
32 Morza 10-05-2026 07:45 0,3 96 0 0 357 7 1013,5
31 Morza 10-05-2026 07:30 0,1 95 0 0 357 0 1013,6
30 Morza 10-05-2026 07:15 0,2 95 0 0 357 0 1013,6
29 Morza 10-05-2026 07:00 0,2 94 0 0 355 0 1013,6
28 Morza 10-05-2026 06:45 0,9 95 0 0 305 0 1013,4
27 Morza 10-05-2026 06:30 0,9 95 0 0 306 0 1013,4
26 Morza 10-05-2026 06:15 0,7 95 0 0 303 0 1013,2
25 Morza 10-05-2026 06:00 0,7 95 0 0,4 53 0 1013,1
24 Morza 10-05-2026 05:45 0,7 95 0 0 50 0 1013,2
23 Morza 10-05-2026 05:30 0,6 94 0 0 46 0 1013
22 Morza 10-05-2026 05:15 1,4 95 0 0 242 0 1012,8
21 Morza 10-05-2026 05:00 1,7 95 0 0 242 0 1012,8
20 Morza 10-05-2026 04:45 1,6 95 0 0 242 0 1013
19 Morza 10-05-2026 04:30 1,5 94 0 0 242 0 1012,9
18 Morza 10-05-2026 04:15 1,7 94 0 0,4 242 0 1013
17 Morza 10-05-2026 04:00 1,9 95 0 0,4 242 0 1013,1
16 Morza 10-05-2026 03:45 2,1 95 0 0 242 0 1013,2
15 Morza 10-05-2026 03:30 2,1 94 0 0 242 0 1013,1
14 Morza 10-05-2026 03:15 2,3 94 0 0 242 0 1013,4
13 Morza 10-05-2026 03:00 2,3 94 0 0,4 251 0 1013,3
12 Morza 10-05-2026 02:45 2,8 94 0 0 209 0 1013,4
11 Morza 10-05-2026 02:30 3 94 0 0,4 209 0 1013,6
10 Morza 10-05-2026 02:15 3,2 94 0 0 209 0 1013,8
9 Morza 10-05-2026 02:00 3,3 94 0 0 209 0 1014,3
8 Morza 10-05-2026 01:45 3,3 94 0 0 209 0 1014,2
7 Morza 10-05-2026 01:30 3,6 94 0 0 209 0 1014,1
6 Morza 10-05-2026 01:15 3,8 94 0 0 199 0 1014,2
5 Morza 10-05-2026 01:00 3,8 94 0,2 0 223 0 1014,2
4 Morza 10-05-2026 00:45 3,8 94 0 0 223 0 1014,3
3 Morza 10-05-2026 00:30 3,9 94 0 0,4 240 0 1014,3
2 Morza 10-05-2026 00:15 3,9 93 0 0 277 0 1014,4
1 Morza 10-05-2026 00:00 4,3 93 0 0 172 0 1014,4